Temp
-8 -8 -8 -8 -7 -6 -7 -7 -7 -8 -7 -7 -7 -7 -7 -6 -6 -6 -6 -6 -6 -6 -7 -6 -7 -7 -7 -7 -7 -7 -6 -6 -7 -7 -6 -6 -6 -7 -6 -7 -7 -6 -7
-8 -9 -9 -8 -8 -7 -7 -7 -7 -7 -7 -7 -7 -7 -7 -6 -6 -7 -7 -7 -7 -7 -7 -7 -7 -7 -7 -7 -7 -7 -7 -7 -7 -7 -7 -6 -6 -7 -7 -6 -8 -7 -8
-9 -9 -9 -9 -8 -8 -7 -8 -8 -8 -8 -8 -8 -7 -7 -7 -7 -8 -8 -9 -9 -9 -8 -8 -8 -8 -8 -8 -7 -7 -7 -7 -7 -7 -7 -7 -7 -7 -7 -7 -7 -7 -7
-9 -9 -9 -9 -8 -8 -7 -8 -8 -8 -8 -8 -8 -7 -7 -7 -7 -8 -8 -9 -10 -10 -10 -9 -9 -9 -9 -8 -8 -8 -8 -8 -8 -8 -7 -7 -7 -7 -7 -7 -7 -8 -7
-9 -10 -9 -9 -8 -8 -8 -8 -8 -8 -8 -8 -8 -8 -7 -8 -8 -8 -9 -9 -9 -10 -10 -10 -9 -9 -9 -9 -9 -8 -8 -8 -8 -8 -8 -8 -7 -7 -7 -8 -7 -7 -8
-9 -10 -9 -9 -8 -8 -8 -8 -9 -9 -8 -8 -8 -8 -8 -8 -8 -9 -9 -9 -9 -9 -10 -10 -10 -9 -9 -9 -9 -9 -9 -9 -8 -8 -8 -8 -8 -7 -8 -8 -7 -8 -8
-8 -9 -9 -9 -9 -9 -8 -9 -9 -9 -9 -8 -9 -9 -9 -9 -9 -9 -10 -10 -10 -10 -10 -10 -10 -10 -9 -9 -9 -9 -9 -9 -9 -8 -8 -8 -8 -7 -8 -8 -8 -8 -8
-9 -9 -10 -9 -9 -9 -9 -9 -9 -9 -9 -9 -9 -9 -9 -9 -9 -10 -10 -10 -10 -11 -11 -11 -10 -10 -10 -10 -9 -9 -9 -9 -9 -9 -8 -8 -8 -8 -8 -8 -7 -8 -8
-9 -8 -9 -10 -9 -10 -10 -10 -10 -10 -10 -9 -9 -10 -10 -10 -10 -11 -11 -11 -11 -11 -11 -11 -11 -11 -10 -10 -10 -9 -9 -9 -9 -9 -9 -8 -8 -8 -8 -7 -7 -7 -8
-10 -8 -7 -9 -10 -10 -10 -10 -10 -10 -10 -10 -10 -10 -10 -11 -11 -11 -11 -11 -11 -11 -11 -11 -11 -11 -11 -10 -10 -10 -9 -9 -9 -9 -9 -8 -8 -8 -8 -8 -7 -7 -8
-11 -11 -10 -8 -9 -11 -11 -10 -10 -10 -10 -11 -11 -11 -11 -11 -11 -11 -11 -11 -11 -11 -11 -11 -11 -11 -11 -11 -10 -10 -10 -10 -9 -9 -9 -9 -8 -8 -8 -8 -7 -7 -7
-11 -12 -11 -10 -8 -10 -11 -10 -10 -11 -11 -11 -11 -12 -11 -11 -12 -12 -11 -11 -11 -11 -11 -11 -11 -11 -11 -11 -11 -10 -10 -10 -9 -9 -9 -9 -8 -9 -8 -8 -8 -7 -8
-10 -11 -12 -12 -9 -9 -11 -10 -11 -11 -12 -12 -12 -12 -12 -12 -12 -11 -11 -11 -11 -12 -11 -11 -11 -11 -11 -11 -11 -11 -11 -10 -10 -10 -9 -9 -8 -9 -8 -8 -8 -8 -8
-10 -11 -11 -12 -11 -9 -11 -10 -10 -12 -12 -12 -12 -13 -13 -13 -12 -12 -12 -12 -11 -11 -12 -12 -11 -11 -11 -11 -11 -11 -11 -11 -11 -10 -9 -10 -10 -9 -8 -8 -8 -8 -8
-10 -11 -11 -11 -11 -10 -11 -10 -10 -11 -12 -12 -13 -12 -13 -13 -12 -12 -12 -12 -12 -12 -12 -11 -11 -11 -11 -11 -11 -11 -11 -11 -11 -10 -10 -10 -11 -10 -9 -9 -9 -8 -8
-10 -11 -10 -11 -10 -10 -11 -11 -11 -11 -12 -12 -13 -12 -13 -13 -12 -12 -12 -12 -12 -12 -12 -12 -12 -11 -11 -12 -12 -11 -11 -11 -11 -10 -10 -11 -10 -10 -10 -10 -10 -9 -9
-10 -10 -10 -10 -10 -10 -11 -11 -12 -12 -13 -13 -13 -13 -13 -13 -13 -12 -12 -12 -12 -12 -12 -12 -12 -12 -12 -11 -11 -11 -11 -11 -11 -10 -10 -11 -11 -10 -10 -10 -10 -10 -10
-10 -10 -10 -10 -9 -10 -10 -11 -12 -13 -13 -13 -13 -13 -13 -13 -13 -12 -12 -12 -12 -12 -12 -12 -12 -12 -12 -12 -12 -12 -12 -11 -11 -11 -11 -10 -10 -11 -10 -10 -10 -10 -10
-10 -10 -9 -10 -9 -10 -10 -12 -13 -13 -13 -13 -13 -13 -13 -13 -13 -13 -12 -13 -12 -12 -12 -12 -12 -12 -12 -12 -12 -12 -12 -12 -11 -11 -11 -11 -11 -11 -11 -11 -11 -11 -10
-10 -9 -9 -10 -10 -10 -11 -12 -12 -13 -13 -13 -13 -13 -13 -12 -12 -12 -12 -12 -12 -12 -12 -12 -12 -12 -12 -12 -12 -12 -12 -12 -12 -12 -12 -11 -11 -11 -11 -11 -11 -11 -11
-9 -9 -10 -10 -10 -10 -11 -12 -13 -13 -13 -13 -12 -12 -12 -12 -12 -12 -12 -12 -12 -12 -12 -12 -12 -12 -12 -12 -12 -12 -12 -13 -13 -12 -12 -12 -12 -11 -11 -11 -11 -11 -11
-9 -9 -10 -10 -10 -11 -12 -12 -12 -12 -12 -12 -12 -12 -12 -13 -13 -12 -12 -12 -12 -13 -13 -13 -13 -13 -13 -13 -13 -13 -13 -13 -13 -13 -12 -12 -12 -12 -11 -11 -11 -11 -11
-10 -10 -10 -10 -11 -12 -12 -12 -12 -12 -11 -12 -12 -11 -12 -12 -12 -13 -13 -13 -13 -13 -13 -13 -14 -13 -13 -13 -13 -13 -13 -13 -13 -13 -13 -12 -12 -12 -12 -11 -11 -11 -11
-11 -11 -10 -11 -11 -12 -12 -12 -12 -11 -11 -12 -12 -12 -12 -12 -13 -13 -13 -13 -13 -13 -13 -14 -14 -14 -14 -14 -14 -13 -13 -13 -13 -13 -13 -13 -13 -12 -12 -12 -12 -11 -11
-11 -11 -11 -12 -12 -12 -12 -12 -11 -11 -11 -11 -12 -12 -12 -12 -13 -13 -13 -13 -13 -13 -13 -14 -14 -14 -14 -14 -14 -14 -14 -14 -13 -13 -13 -13 -13 -13 -13 -13 -12 -12 -12
-11 -11 -12 -12 -12 -12 -12 -11 -11 -11 -11 -12 -12 -12 -12 -12 -13 -13 -13 -13 -13 -13 -13 -13 -13 -14 -14 -14 -14 -14 -14 -14 -14 -14 -14 -13 -13 -13 -13 -13 -13 -12 -12
Height
5879 5876 5874 5873 5871 5869 5869 5868 5865 5863 5862 5861 5861 5860 5859 5857 5855 5854 5854 5854 5853 5851 5850 5850 5850 5850 5851 5852 5853 5855 5856 5857 5858 5861 5863 5865 5866 5866 5867 5870 5871 5872 5873
5877 5873 5870 5868 5867 5865 5865 5863 5861 5859 5857 5855 5854 5853 5853 5851 5850 5848 5848 5846 5845 5845 5843 5843 5843 5843 5845 5845 5846 5848 5850 5852 5853 5855 5857 5860 5862 5863 5863 5865 5867 5869 5870
5874 5870 5867 5864 5863 5860 5859 5859 5857 5854 5853 5850 5849 5847 5845 5844 5842 5840 5839 5839 5838 5839 5838 5837 5836 5836 5837 5838 5839 5841 5843 5845 5847 5849 5852 5854 5857 5859 5860 5860 5861 5864 5867
5870 5866 5863 5861 5859 5855 5855 5855 5853 5851 5849 5846 5844 5842 5840 5838 5836 5834 5834 5833 5832 5831 5831 5832 5831 5830 5830 5831 5833 5834 5836 5839 5841 5843 5846 5848 5851 5854 5856 5856 5857 5860 5863
5867 5863 5859 5857 5856 5853 5851 5851 5849 5848 5845 5842 5839 5837 5835 5833 5830 5829 5827 5826 5826 5825 5825 5824 5825 5825 5823 5824 5826 5828 5830 5833 5835 5837 5839 5842 5845 5849 5851 5853 5855 5856 5858
5863 5862 5858 5855 5853 5850 5846 5845 5844 5843 5840 5838 5833 5831 5829 5828 5826 5823 5821 5819 5817 5816 5817 5818 5818 5817 5817 5818 5819 5821 5823 5825 5827 5831 5833 5836 5839 5844 5845 5848 5850 5853 5854
5853 5860 5855 5853 5849 5845 5842 5840 5839 5838 5836 5833 5829 5826 5825 5823 5820 5816 5814 5813 5810 5808 5807 5808 5809 5811 5810 5811 5812 5814 5816 5818 5820 5824 5827 5830 5833 5838 5841 5843 5845 5849 5850
5850 5849 5855 5849 5846 5842 5839 5836 5835 5833 5831 5829 5825 5823 5822 5819 5815 5811 5807 5806 5804 5803 5801 5800 5800 5801 5803 5804 5805 5806 5809 5811 5813 5816 5819 5822 5826 5831 5834 5837 5839 5844 5846
5852 5845 5851 5846 5842 5838 5835 5833 5832 5830 5828 5824 5822 5820 5818 5815 5810 5807 5803 5800 5799 5797 5796 5795 5794 5793 5794 5795 5797 5798 5800 5803 5805 5807 5811 5814 5819 5823 5827 5831 5834 5838 5841
5838 5835 5830 5845 5839 5834 5831 5829 5828 5827 5824 5820 5818 5816 5813 5809 5805 5803 5800 5796 5793 5791 5790 5790 5788 5787 5787 5788 5788 5790 5792 5796 5798 5801 5804 5807 5811 5816 5819 5824 5828 5832 5835
5846 5833 5823 5827 5839 5832 5827 5825 5822 5822 5819 5817 5814 5811 5808 5805 5801 5798 5797 5793 5791 5787 5785 5783 5782 5781 5781 5780 5781 5782 5785 5787 5789 5793 5798 5800 5805 5809 5812 5817 5822 5827 5830
5845 5842 5826 5821 5826 5829 5824 5821 5819 5817 5815 5812 5809 5807 5804 5800 5796 5792 5789 5787 5784 5781 5779 5778 5776 5774 5774 5774 5774 5775 5778 5779 5782 5786 5791 5795 5799 5802 5805 5811 5816 5821 5825
5839 5838 5831 5817 5819 5818 5819 5816 5816 5812 5810 5807 5805 5802 5801 5797 5792 5789 5784 5782 5780 5777 5773 5771 5769 5768 5768 5767 5767 5768 5770 5772 5775 5778 5782 5788 5791 5796 5800 5805 5809 5814 5819
5832 5831 5831 5817 5812 5813 5812 5809 5811 5808 5806 5803 5801 5797 5793 5790 5788 5782 5777 5773 5771 5769 5767 5764 5763 5763 5761 5761 5761 5761 5764 5765 5768 5770 5776 5780 5783 5789 5792 5798 5802 5806 5811
5824 5822 5822 5814 5807 5809 5806 5802 5801 5801 5800 5799 5796 5793 5792 5785 5781 5777 5773 5770 5766 5762 5759 5757 5756 5755 5755 5754 5754 5756 5756 5758 5760 5763 5768 5772 5775 5780 5786 5791 5795 5800 5804
5815 5816 5814 5809 5803 5804 5802 5797 5793 5792 5791 5791 5788 5786 5783 5780 5774 5770 5766 5763 5760 5757 5754 5751 5749 5748 5748 5747 5747 5747 5750 5752 5753 5756 5760 5765 5769 5773 5779 5783 5787 5793 5798
5806 5808 5807 5802 5799 5799 5797 5792 5788 5787 5786 5784 5781 5778 5778 5775 5768 5764 5759 5755 5753 5751 5748 5745 5743 5741 5741 5741 5741 5742 5743 5746 5747 5749 5753 5758 5762 5767 5772 5776 5781 5786 5791
5801 5802 5799 5794 5793 5793 5791 5787 5783 5783 5782 5778 5777 5773 5771 5768 5763 5758 5753 5749 5744 5743 5741 5738 5736 5735 5734 5733 5734 5735 5735 5737 5741 5743 5746 5750 5753 5759 5764 5770 5775 5780 5786
5794 5795 5792 5788 5785 5788 5785 5782 5780 5777 5778 5773 5770 5768 5765 5761 5756 5751 5746 5741 5737 5735 5732 5729 5727 5726 5726 5725 5726 5727 5728 5730 5733 5736 5739 5743 5747 5752 5757 5763 5768 5773 5779
5789 5787 5785 5783 5780 5781 5778 5775 5775 5773 5771 5769 5764 5761 5757 5754 5749 5744 5740 5734 5730 5727 5723 5720 5718 5718 5717 5717 5717 5719 5720 5722 5725 5729 5733 5737 5741 5746 5751 5756 5761 5766 5772
5781 5778 5777 5777 5775 5773 5772 5770 5768 5767 5765 5761 5758 5755 5751 5745 5740 5736 5731 5726 5721 5718 5714 5712 5709 5708 5708 5708 5709 5711 5713 5716 5720 5724 5728 5732 5736 5741 5746 5750 5755 5760 5766
5771 5770 5771 5771 5770 5767 5765 5764 5763 5760 5758 5755 5751 5747 5744 5739 5733 5728 5723 5717 5713 5709 5706 5703 5702 5701 5700 5700 5703 5704 5707 5711 5713 5718 5722 5727 5732 5736 5740 5745 5748 5755 5760
5761 5762 5765 5765 5764 5761 5760 5758 5756 5754 5751 5749 5744 5739 5738 5732 5725 5721 5715 5710 5705 5701 5699 5697 5696 5696 5696 5697 5698 5699 5701 5703 5707 5711 5716 5721 5726 5731 5734 5737 5743 5749 5755
5754 5757 5759 5759 5758 5757 5755 5753 5750 5748 5744 5742 5737 5733 5730 5727 5721 5715 5710 5705 5700 5698 5695 5693 5692 5692 5692 5693 5694 5695 5697 5700 5703 5706 5710 5714 5719 5724 5729 5733 5737 5744 5751
5750 5752 5753 5754 5753 5752 5750 5747 5744 5741 5739 5735 5731 5727 5722 5719 5714 5710 5705 5702 5699 5696 5692 5690 5689 5689 5689 5689 5690 5690 5692 5695 5696 5697 5705 5709 5713 5720 5724 5729 5734 5739 5747
5746 5748 5749 5749 5749 5747 5745 5742 5739 5736 5734 5731 5727 5722 5719 5714 5709 5705 5702 5700 5697 5694 5692 5690 5689 5689 5688 5687 5688 5689 5690 5692 5693 5697 5703 5706 5710 5716 5720 5726 5730 5736 5743
Wind_Speed
36 38 39 37 37 36 36 34 34 33 30 28 28 27 29 30 30 32 31 31 32 33 32 33 34 34 33 32 32 33 32 32 29 29 27 28 29 27 25 23 22 21 21
32 35 38 38 38 39 37 36 35 35 34 31 30 30 32 33 33 30 29 30 30 31 32 34 36 37 36 35 34 34 34 33 32 30 30 31 31 28 26 23 23 22 20
32 35 35 37 38 40 39 37 35 32 30 30 32 33 35 34 32 31 30 32 31 28 29 34 35 36 38 36 36 35 34 34 33 32 32 32 31 31 26 25 23 22 22
32 34 36 37 40 43 42 37 33 30 29 31 34 33 32 34 35 35 34 32 29 28 26 28 33 34 36 36 37 36 35 33 34 33 34 33 32 31 29 27 25 23 22
31 34 36 37 39 42 43 36 32 31 29 33 32 32 33 35 35 37 36 35 33 32 28 26 27 31 33 35 35 36 35 34 34 35 35 34 33 32 29 28 26 25 24
35 34 37 37 39 41 44 38 32 31 30 34 31 33 36 38 37 37 37 37 37 37 33 30 25 27 30 32 34 35 35 34 34 35 36 36 35 31 31 32 29 26 26
42 33 34 36 38 42 45 39 33 31 32 32 31 34 38 40 40 40 38 36 36 36 34 32 32 27 25 28 29 33 32 33 34 36 35 38 36 33 31 31 31 30 28
43 43 34 36 39 42 43 34 32 32 36 31 32 36 39 40 41 40 38 36 32 31 30 30 29 29 28 28 28 29 31 30 33 36 37 36 37 33 33 33 32 31 31
41 45 33 34 39 42 39 31 32 32 36 33 35 37 39 42 41 37 36 36 34 31 28 27 28 28 26 28 30 30 31 32 31 34 36 37 37 35 33 34 32 31 32
52 53 56 33 39 44 41 33 34 34 35 35 37 37 41 40 37 36 36 36 36 30 27 27 27 28 28 27 28 32 33 32 34 30 32 36 37 35 35 34 33 33 32
39 48 56 54 30 40 42 37 35 37 38 36 37 37 38 34 36 37 36 37 31 29 30 30 29 31 29 28 27 29 32 33 34 37 33 33 34 33 36 35 35 34 33
36 36 49 52 40 33 40 37 35 37 39 37 36 34 37 35 35 37 37 34 31 32 30 30 33 32 29 28 28 29 28 33 35 37 41 33 33 32 36 36 35 36 35
41 38 36 52 47 38 40 35 33 36 37 37 37 37 41 40 39 34 36 32 30 28 33 34 32 29 27 28 28 25 28 31 34 37 39 42 36 34 37 36 37 38 38
41 38 32 47 52 43 38 35 29 33 34 35 37 40 42 39 44 37 38 36 34 35 35 30 27 27 28 26 28 29 29 30 30 36 37 35 35 36 40 39 39 39 39
41 40 37 43 51 43 36 36 30 32 33 34 37 43 50 42 41 39 38 35 35 36 34 29 29 28 28 29 28 28 29 30 31 32 33 34 33 34 36 40 41 41 41
43 42 39 44 49 37 32 33 34 34 37 37 39 41 48 52 42 41 40 39 36 36 35 33 31 29 25 27 29 29 27 28 31 30 31 35 36 36 32 35 38 41 42
44 41 39 43 41 31 31 29 34 35 40 40 40 43 42 41 45 43 42 41 40 36 33 33 31 31 28 26 26 25 27 29 29 31 33 34 37 38 37 35 38 40 41
42 39 40 39 34 27 28 27 32 35 39 41 38 43 45 45 46 44 43 43 42 36 34 35 33 33 32 32 29 27 27 30 32 31 33 36 37 37 39 40 38 41 40
42 37 39 35 31 25 28 26 29 36 38 39 40 43 45 45 47 45 44 45 40 39 36 33 32 29 30 31 28 29 30 29 30 30 31 33 38 37 37 37 37 38 40
39 37 35 31 30 26 27 27 30 33 35 36 42 45 46 46 45 43 43 42 41 39 37 32 30 31 31 30 31 28 30 28 29 29 29 31 34 35 35 36 37 39 39
33 37 32 28 27 28 26 27 30 35 37 40 41 43 44 45 45 43 45 41 40 38 36 32 34 33 32 30 27 27 29 29 26 28 29 29 29 33 33 33 34 37 38
30 34 29 28 26 26 27 30 34 38 39 38 39 40 40 42 44 44 40 39 41 38 34 30 27 23 22 22 25 25 27 32 27 27 30 30 31 29 31 32 35 34 37
29 26 28 26 25 25 29 34 38 36 36 35 37 38 37 39 40 38 37 35 32 25 24 22 22 21 19 18 19 20 19 22 28 28 28 29 30 30 28 31 32 35 36
25 23 24 22 24 26 30 37 35 34 35 34 34 36 36 31 32 30 30 24 23 22 21 20 17 15 14 13 14 15 18 19 20 23 24 26 27 29 30 30 30 31 32
22 20 19 20 22 28 32 33 31 33 28 30 32 30 32 30 29 27 22 21 18 14 11 7 5 6 6 7 8 11 14 16 19 18 20 23 24 27 29 27 28 30 30
17 16 18 20 25 30 30 27 26 26 27 28 26 27 28 28 23 18 17 13 8 5 5 4 1 2 2 3 3 5 9 19 11 7 20 21 22 23 26 26 24 26 28
Wind_Direction
309 308 311 313 314 314 317 322 325 326 324 320 317 315 317 319 318 312 304 295 288 279 275 273 270 265 263 263 261 260 257 255 250 244 241 239 242 245 244 244 247 247 249
307 305 308 313 315 316 321 324 322 323 320 318 315 316 318 320 317 309 302 294 286 275 273 271 266 264 262 259 258 258 257 255 253 248 243 239 240 241 242 242 240 245 246
308 307 311 313 317 320 324 328 329 325 320 321 322 324 324 321 314 308 305 301 298 289 278 272 270 266 264 259 259 256 254 255 253 250 246 241 239 240 241 239 239 237 241
316 314 313 317 321 322 324 330 329 323 322 325 326 326 322 318 316 311 306 299 295 296 291 279 271 267 261 260 258 258 256 252 253 250 248 245 241 240 238 237 236 236 239
306 310 314 319 319 321 324 329 327 325 322 327 324 321 319 318 315 310 309 304 298 288 286 282 275 268 263 259 258 257 257 254 250 250 247 246 242 238 237 238 237 237 237
306 311 310 311 317 322 327 328 327 326 322 325 323 321 321 317 314 310 310 307 304 298 286 278 270 266 262 257 257 255 256 255 253 249 246 245 243 239 239 233 236 233 238
305 315 318 316 317 325 326 327 326 326 326 327 323 321 320 317 314 313 312 309 305 298 292 280 273 265 258 259 256 251 250 251 250 250 246 244 243 241 242 238 236 235 235
310 313 323 320 320 323 327 326 325 325 327 326 325 323 319 317 314 312 310 308 304 298 293 287 277 267 262 255 253 249 246 245 246 246 246 243 242 242 240 241 236 237 236
306 305 315 322 323 324 329 324 319 325 324 326 326 323 321 318 316 311 308 306 306 303 294 287 282 278 268 257 250 247 246 246 246 244 243 240 239 239 242 241 239 237 241
318 313 313 324 323 325 329 321 316 324 323 325 323 323 321 320 317 315 311 309 311 305 298 296 291 284 277 268 258 249 244 246 241 249 244 240 236 235 239 238 238 239 241
310 313 313 314 322 324 322 317 315 319 319 323 322 321 321 322 319 314 314 307 302 297 299 298 294 289 281 272 264 255 247 247 243 238 245 242 237 236 238 238 239 240 243
306 304 305 309 318 320 316 310 309 311 315 320 318 315 319 320 318 318 313 309 303 301 300 293 292 286 277 275 269 263 255 248 243 238 241 242 240 237 237 237 238 239 241
302 302 301 303 311 320 312 301 304 302 312 314 313 310 314 317 316 311 314 308 305 300 299 296 291 283 275 273 269 268 260 251 246 242 237 242 239 239 239 239 240 242 242
296 300 295 296 299 312 303 298 302 297 307 310 310 311 320 311 313 314 315 310 309 305 301 298 290 281 280 274 266 269 262 255 246 242 242 240 239 234 236 237 238 241 242
293 297 297 291 293 304 292 294 303 300 305 308 309 303 312 314 312 312 311 306 305 304 303 297 292 290 277 271 272 264 265 255 250 243 238 240 240 234 234 235 235 237 240
288 292 297 293 292 295 285 292 299 303 306 308 302 310 310 308 311 313 310 308 304 299 297 292 289 284 282 273 270 263 258 254 249 247 239 234 235 238 236 239 237 235 235
283 296 299 292 290 289 287 287 292 297 297 305 304 303 312 312 312 311 309 304 302 298 293 290 286 281 276 274 267 265 255 246 248 247 244 240 238 236 237 237 238 235 235
279 297 296 287 282 287 284 289 290 291 295 298 298 300 308 307 309 309 304 303 303 300 294 289 283 279 271 269 262 256 252 247 243 246 244 240 241 241 240 240 240 235 234
283 296 287 283 280 284 287 291 287 288 293 292 294 299 302 305 305 304 302 303 301 300 296 289 285 277 271 270 256 258 254 251 246 244 240 237 236 239 239 235 234 232 231
286 286 284 275 283 284 290 294 290 290 293 293 296 297 300 302 302 300 300 299 298 297 292 283 282 278 272 265 263 261 251 249 244 238 236 233 232 233 234 232 234 231 228
283 279 276 272 280 284 290 295 293 290 290 292 296 297 298 300 300 300 300 297 296 293 292 284 277 278 271 263 260 256 252 246 246 240 233 231 230 230 230 229 230 229 228
269 270 265 271 277 286 296 292 291 298 296 297 297 297 298 300 297 299 299 296 295 294 290 285 280 274 272 265 250 256 254 249 247 244 237 233 230 231 231 225 226 225 227
252 255 258 272 279 289 293 293 300 298 299 295 296 296 296 296 301 302 301 300 296 292 289 285 279 277 270 260 251 248 247 243 239 242 238 235 231 229 230 228 224 223 223
244 246 263 274 279 288 292 295 300 299 299 296 294 295 297 298 299 301 300 301 299 299 293 287 277 268 261 259 256 249 240 237 237 238 232 229 225 222 224 228 225 224 221
238 253 268 271 280 288 294 301 301 300 296 295 297 301 303 307 308 300 300 303 303 306 312 310 291 261 260 257 255 247 230 218 219 202 222 220 223 221 222 221 223 219 219
240 261 262 272 282 291 298 300 300 296 297 299 301 303 310 309 306 305 304 304 311 328 350 350 344 294 272 304 215 214 206 209 235 216 213 212 216 212 213 215 215 215 216